Flag for Belgium Weather past 2 weeks in Ghent, Belgium

Now
46 °F

Cool.


Feels Like: 43 °F
Forecast: 37 / 44 °F
Wind: 5 mph from West

Location: Munte

Current Time: Dec 25, 2014 at 2:38:25 PM

Latest Report: Dec 25, 2014 at 1:00 PM


Visibility: 11 mi

Pressure: 30.33 "Hg

Humidity: 80%

Dew point: 40 °F

Location of GhentLocation

Historic Weather in Ghent — Graph

°F

Ghent temperature yesterday

Maximum temperature yesterday: 50 °F (at 2:00 PM)
Minimum temperature yesterday: 40 °F (at 9:00 PM)
Average temperature yesterday: 47 °F

Past Weeks' High & Low Weather Summary

 TemperatureHumidityPressure
High55 °F (Dec 18, 2:00 PM)99% (Dec 16, 7:00 AM)30.47 "Hg (Dec 16, 7:00 AM)
Low32 °F (Dec 14, 8:00 AM)59% (Dec 10, 3:00 PM)29.41 "Hg (Dec 12, 10:00 AM)
Average44 °F87%29.99 "Hg
* Reported Dec 10 1:00 PM — Dec 25 1:00 PM, Ghent, Weather by CustomWeather, © 2014

Note: Actual official high and low records may vary slightly from our data, if they occured in-between our weather recording intervals... More about our weather records

Advertising

Ghent weather history for previous 24 hours

 ConditionsComfort  
Time TempWeatherWind HumidityBarometerVisibility
1:00 PM
Dec 25
46 °FCool.5 mph80%30.33 "Hg11 mi
12:00 PM44 °FQuite cool.3 mph83%30.32 "Hg10 mi
11:00 AM42 °FQuite cool.5 mph85%30.32 "Hg12 mi
10:00 AM40 °FQuite cool.3 mph86%30.31 "Hg14 mi
9:00 AM39 °FChilly.2 mph87%30.30 "Hg14 mi
8:00 AM39 °FChilly.3 mph87%30.27 "Hg15 mi
7:00 AM39 °FChilly.3 mph86%30.26 "Hg12 mi
6:00 AM38 °FChilly.5 mph87%30.25 "Hg14 mi
5:00 AM39 °FChilly.3 mph83%30.25 "Hg15 mi
4:00 AM40 °FQuite cool.5 mph81%30.23 "Hg17 mi
3:00 AM40 °FQuite cool.5 mph79%30.24 "Hg16 mi
2:00 AM40 °FQuite cool.5 mph79%30.22 "Hg22 mi
1:00 AM40 °FQuite cool.3 mph77%30.22 "Hg22 mi
12:00 AM40 °FQuite cool.5 mph76%30.21 "Hg19 mi
11:00 PM
Dec 24
40 °FQuite cool.5 mph77%30.20 "Hg19 mi
10:00 PM41 °FQuite cool.3 mph74%30.19 "Hg22 mi
9:00 PM40 °FQuite cool.3 mph74%30.18 "Hg22 mi
8:00 PM44 °FQuite cool.3 mph65%30.16 "Hg28 mi
7:00 PM44 °FQuite cool.2 mph84%30.13 "Hg19 mi
6:00 PM44 °FQuite cool.2 mph90%30.10 "Hg15 mi
5:00 PM46 °FCool.5 mph86%30.08 "Hg15 mi
4:00 PM46 °FDrizzle. Cloudy.2 mph95%30.06 "Hg14 mi
3:00 PM47 °FDrizzle. Cloudy.3 mph97%30.03 "Hg2 mi
2:00 PM50 °FDrizzle. Cloudy.8 mph96%30.00 "Hg4 mi
Weather by CustomWeather, © 2014

See weather overviewHow to use our weather pages